Flag for Spain Weather past 2 weeks in Murcia, Spain

Now
73 °F

Clear.


Feels Like: 74 °F
Forecast: 71 / 96 °F
Wind: 2 mph from North

Location: Alicante / El Altet

Current Time: Jul 26, 2014 at 7:31:20 AM

Latest Report: Jul 26, 2014 at 7:00 AM


Visibility: 10 mi

Pressure: 29.89 "Hg

Humidity: 78%

Dew point: 66 °F

Location of MurciaLocation

Historic Weather in Murcia — Graph

°F

Murcia temperature yesterday

Maximum temperature yesterday: 86 °F (at 1:30 PM)
Minimum temperature yesterday: 72 °F (at 6:00 AM)
Average temperature yesterday: 79 °F

Past Weeks' High & Low Weather Summary

 TemperatureHumidityPressure
High91 °F (Jul 20, 2:00 PM)89% (Jul 14, 4:00 AM)30.12 "Hg (Jul 14, 4:00 AM)
Low68 °F (Jul 22, 5:00 AM)21% (Jul 20, 2:30 PM)29.77 "Hg (Jul 24, 7:00 PM)
Average79 °F63%29.97 "Hg
* Reported Jul 11 6:00 AM — Jul 26 6:30 AM, Murcia, Weather by CustomWeather, © 2014

Note: Actual official high and low records may vary slightly from our data, if they occured in-between our weather recording intervals... More about our weather records

Advertising

Murcia weather history for previous 24 hours

 ConditionsComfort  
Time TempWeatherWind HumidityBarometerVisibility
6:30 AM
Jul 26
75 °FClear.6 mph78%29.89 "Hg10 mi
6:00 AM73 °FPassing clouds.3 mph83%29.89 "HgN/A
5:30 AM73 °FClear.1 mph83%29.89 "Hg10 mi
5:00 AM73 °FClear.2 mph89%29.89 "Hg10 mi
4:30 AM75 °FClear.5 mph83%29.89 "Hg10 mi
4:00 AM75 °FPassing clouds.2 mph83%29.89 "HgN/A
3:30 AM75 °FPassing clouds.1 mph83%29.89 "HgN/A
3:00 AM75 °FPassing clouds.No wind83%29.92 "HgN/A
2:30 AM77 °FPassing clouds.1 mph83%29.92 "HgN/A
2:00 AM77 °FPassing clouds.1 mph83%29.92 "Hg10 mi
1:30 AM77 °FClear.1 mph83%29.92 "Hg10 mi
1:00 AM77 °FClear.No wind79%29.92 "Hg10 mi
12:30 AM77 °FClear.No wind79%29.89 "Hg10 mi
12:00 AM77 °FClear.No wind83%29.89 "Hg10 mi
11:30 PM
Jul 25
77 °FClear.No wind83%29.89 "Hg10 mi
11:00 PM79 °FClear.1 mph79%29.86 "Hg10 mi
10:30 PM79 °FPassing clouds.1 mph79%29.86 "HgN/A
10:00 PM79 °FPassing clouds.3 mph79%29.86 "HgN/A
9:30 PM79 °FPassing clouds.5 mph79%29.83 "HgN/A
9:00 PM79 °FPassing clouds.8 mph79%29.83 "HgN/A
8:30 PM81 °FPassing clouds.8 mph74%29.83 "HgN/A
8:00 PM81 °FPassing clouds.9 mph74%29.83 "HgN/A
7:30 PM81 °FPassing clouds.12 mph74%29.83 "HgN/A
7:00 PM82 °FPassing clouds.13 mph70%29.83 "HgN/A
6:30 PM82 °FPassing clouds.13 mph66%29.83 "HgN/A
6:00 PM82 °FPassing clouds.13 mph66%29.83 "HgN/A
5:30 PM82 °FPassing clouds.13 mph70%29.83 "HgN/A
4:30 PM84 °FPassing clouds.14 mph62%29.83 "HgN/A
4:00 PM82 °FSunny.16 mph66%29.83 "Hg10 mi
3:30 PM84 °FSunny.18 mph62%29.83 "Hg10 mi
3:00 PM84 °FSunny.13 mph62%29.83 "Hg10 mi
2:30 PM86 °FPassing clouds.10 mph55%29.86 "HgN/A
2:00 PM86 °FPassing clouds.7 mph55%29.83 "HgN/A
1:30 PM86 °FPassing clouds.5 mph52%29.83 "HgN/A
1:00 PM84 °FPassing clouds.7 mph58%29.83 "HgN/A
12:30 PM84 °FPassing clouds.8 mph62%29.83 "HgN/A
12:00 PM82 °FPassing clouds.6 mph66%29.83 "HgN/A
11:30 AM82 °FPassing clouds.7 mph66%29.83 "HgN/A
11:00 AM82 °FPassing clouds.9 mph66%29.83 "HgN/A
10:30 AM81 °FPassing clouds.7 mph70%29.83 "HgN/A
10:00 AM79 °FPassing clouds.5 mph74%29.83 "HgN/A
9:30 AM79 °FPassing clouds.6 mph74%29.83 "HgN/A
9:00 AM77 °FPassing clouds.7 mph69%29.83 "HgN/A
8:30 AM75 °FPassing clouds.7 mph69%29.86 "HgN/A
8:00 AM73 °FPassing clouds.5 mph74%29.86 "HgN/A
7:30 AM73 °FPassing clouds.5 mph74%29.86 "HgN/A
7:00 AM73 °FPassing clouds.7 mph69%29.86 "HgN/A
Weather by CustomWeather, © 2014

See weather overviewHow to use our weather pages